Change the Weather History Date:

Wednesday, November 7, 2012

  Actual Average Record
Temperature  
Mean Temperature 48 °F -  
Max Temperature 57 °F - 80 °F (2005)
Min Temperature 39 °F - 24 °F (1967)
Degree Days  
Heating Degree Days 17    
Month to date heating degree days 54  
Since 1 July heating degree days 121  
Moisture  
Dew Point 39 °F    
Average Humidity 72    
Maximum Humidity 87    
Minimum Humidity 36    
Precipitation  
Precipitation 0.00 in - 3.75 in (2000)
Month to date precipitation 0.39  
Year to date precipitation 22.52  
Sea Level Pressure  
Sea Level Pressure 29.95 in    
Wind  
Wind Speed 8 mph (NW)    
Max Wind Speed 17 mph    
Max Gust Speed 24 mph    
Visibility 8 miles    
Events      
T = Trace of Precipitation, MM = Missing Value Source: NWS Daily Summary

Daily Weather History Graph

Daily Weather History Graph

Search for Another Location

Airport or City:

Trip Planner

Search our weather history database for the weather conditions in past years. The results will help you decide how hot, cold, wet, or windy it might be!

Date:

Astronomy

Nov. 07, 2012 Rise Set
Actual Time 6:04 AM CST 4:45 PM CST
Civil Twilight 5:39 AM CST 5:11 PM CST
Nautical Twilight 5:09 AM CST 5:40 PM CST
Astronomical Twilight 4:40 AM CST 6:09 PM CST
Moon No Moon Rise 12:33 PM CST (11/7)
Length of Visible Light 11h 32m
Length of Day
10h 40m
Last Quarter, 43% of the Moon is Illuminated
Nov 7
Last Quarter
Nov 13
New
Nov 20
First Quarter
Nov 28
Full
Dec 6
Last Quarter

Hourly Weather History & Observations

Time (CST) Temp. Windchill Dew Point Humidity Pressure Visibility Wind Dir Wind Speed Gust Speed Precip Events Conditions
12:15 AM 46.4 °F 44.3 °F 42.8 °F 87% 29.94 in 7.0 mi WNW 4.6 mph - N/A   Overcast
12:35 AM 46.4 °F 45.2 °F 42.8 °F 87% 29.94 in 5.0 mi WSW 3.5 mph - N/A   Overcast
12:55 AM 46.4 °F 45.2 °F 42.8 °F 87% 29.94 in 5.0 mi West 3.5 mph - N/A   Overcast
1:15 AM 46.4 °F 44.3 °F 42.8 °F 87% 29.94 in 5.0 mi West 4.6 mph - N/A   Overcast
1:35 AM 46.4 °F 44.3 °F 42.8 °F 87% 29.93 in 4.0 mi WNW 4.6 mph - N/A   Overcast
1:55 AM 46.4 °F 44.3 °F 42.8 °F 87% 29.93 in 5.0 mi WNW 4.6 mph - N/A   Overcast
2:15 AM 46.4 °F 44.3 °F 42.8 °F 87% 29.92 in 4.0 mi WNW 4.6 mph - N/A   Overcast
2:55 AM 46.4 °F 45.2 °F 42.8 °F 87% 29.91 in 5.0 mi West 3.5 mph - N/A   Overcast
3:15 AM 46.4 °F - 42.8 °F 87% 29.91 in 6.0 mi Calm Calm - N/A   Overcast
3:35 AM 46.4 °F 44.3 °F 42.8 °F 87% 29.91 in 7.0 mi WSW 4.6 mph - N/A   Overcast
3:55 AM 46.4 °F - 42.8 °F 87% 29.91 in 8.0 mi Calm Calm - N/A   Overcast
4:15 AM 46.4 °F - 42.8 °F 87% 29.92 in 7.0 mi Calm Calm - N/A   Mostly Cloudy
4:35 AM 46.4 °F 45.2 °F 42.8 °F 87% 29.92 in 5.0 mi West 3.5 mph - N/A   Partly Cloudy
4:55 AM 46.4 °F 45.2 °F 42.8 °F 87% 29.92 in 5.0 mi WNW 3.5 mph - N/A   Mostly Cloudy
5:15 AM 46.4 °F 45.2 °F 42.8 °F 87% 29.92 in 5.0 mi West 3.5 mph - N/A   Overcast
5:35 AM 46.4 °F 44.3 °F 42.8 °F 87% 29.93 in 5.0 mi West 4.6 mph - N/A   Overcast
5:55 AM 46.4 °F 43.5 °F 42.8 °F 87% 29.93 in 5.0 mi West 5.8 mph - N/A   Mostly Cloudy
6:15 AM 46.4 °F 43.5 °F 42.8 °F 87% 29.94 in 4.0 mi WNW 5.8 mph - N/A   Overcast
6:35 AM 46.4 °F 45.2 °F 42.8 °F 87% 29.94 in 5.0 mi West 3.5 mph - N/A   Mostly Cloudy
6:55 AM 46.4 °F 43.5 °F 42.8 °F 87% 29.94 in 5.0 mi WNW 5.8 mph - N/A   Partly Cloudy
7:15 AM 46.4 °F 43.5 °F 42.8 °F 87% 29.94 in 9.0 mi WNW 5.8 mph - N/A   Scattered Clouds
7:35 AM 48.2 °F - 42.8 °F 82% 29.95 in 10.0 mi WNW 8.1 mph - N/A   Scattered Clouds
7:55 AM 46.4 °F 41.9 °F 42.8 °F 87% 29.95 in 10.0 mi NW 9.2 mph - N/A   Overcast
8:15 AM 48.2 °F - 42.8 °F 82% 29.96 in 10.0 mi NW 9.2 mph - N/A   Overcast
8:35 AM 48.2 °F - 41.0 °F 76% 29.96 in 10.0 mi NW 9.2 mph - N/A   Overcast
8:55 AM 50.0 °F - 41.0 °F 71% 29.96 in 10.0 mi WNW 8.1 mph - N/A   Mostly Cloudy
9:15 AM 51.8 °F - 39.2 °F 62% 29.95 in 10.0 mi WNW 10.4 mph - N/A   Mostly Cloudy
9:35 AM 51.8 °F - 37.4 °F 58% 29.96 in 10.0 mi NW 12.7 mph 19.6 mph N/A   Mostly Cloudy
9:55 AM 51.8 °F - 37.4 °F 58% 29.96 in 10.0 mi NW 15.0 mph 20.7 mph N/A   Mostly Cloudy
10:15 AM 51.8 °F - 37.4 °F 58% 29.95 in 10.0 mi NW 13.8 mph 19.6 mph N/A   Mostly Cloudy
10:35 AM 53.6 °F - 37.4 °F 54% 29.95 in 10.0 mi NW 13.8 mph 20.7 mph N/A   Mostly Cloudy
10:55 AM 55.4 °F - 35.6 °F 47% 29.95 in 10.0 mi NW 17.3 mph 20.7 mph N/A   Scattered Clouds
11:15 AM 55.4 °F - 33.8 °F 44% 29.93 in 10.0 mi NW 12.7 mph 21.9 mph N/A   Mostly Cloudy
11:35 AM 55.4 °F - 33.8 °F 44% 29.93 in 10.0 mi NNW 13.8 mph 20.7 mph N/A   Mostly Cloudy
11:55 AM 55.4 °F - 33.8 °F 44% 29.92 in 10.0 mi WNW 17.3 mph 24.2 mph N/A   Mostly Cloudy
12:15 PM 55.4 °F - 30.2 °F 38% 29.92 in 10.0 mi NW 16.1 mph 25.3 mph N/A   Mostly Cloudy
12:35 PM 55.4 °F - 33.8 °F 44% 29.91 in 10.0 mi WNW 15.0 mph 24.2 mph N/A   Mostly Cloudy
12:55 PM 57.2 °F - 30.2 °F 36% 29.91 in 10.0 mi NNW 16.1 mph 21.9 mph N/A   Overcast
1:15 PM 55.4 °F - 32.0 °F 41% 29.90 in 10.0 mi NW 13.8 mph - N/A   Overcast
1:35 PM 55.4 °F - 33.8 °F 44% 29.90 in 10.0 mi WNW 15.0 mph 20.7 mph N/A   Overcast
1:55 PM 55.4 °F - 33.8 °F 44% 29.90 in 10.0 mi NNW 12.7 mph 19.6 mph N/A   Overcast
2:15 PM 53.6 °F - 33.8 °F 47% 29.91 in 10.0 mi NW 15.0 mph 18.4 mph N/A   Overcast
2:35 PM 53.6 °F - 33.8 °F 47% 29.91 in 10.0 mi NW 9.2 mph - N/A   Overcast
2:55 PM 53.6 °F - 33.8 °F 47% 29.91 in 10.0 mi NW 8.1 mph - N/A   Overcast
3:15 PM 53.6 °F - 35.6 °F 51% 29.92 in 10.0 mi NW 6.9 mph - N/A   Overcast
9:55 PM 42.8 °F 38.0 °F 37.4 °F 81% 30.06 in 10.0 mi NNW 8.1 mph - N/A   Clear
10:15 PM 42.8 °F 38.0 °F 37.4 °F 81% 30.06 in 10.0 mi NNW 8.1 mph - N/A   Clear
10:35 PM 41.0 °F 35.8 °F 37.4 °F 87% 30.06 in 10.0 mi NNW 8.1 mph - N/A   Clear
10:55 PM 41.0 °F 37.1 °F 37.4 °F 87% 30.06 in 10.0 mi NNW 5.8 mph - N/A   Clear
11:15 PM 41.0 °F 36.4 °F 37.4 °F 87% 30.06 in 10.0 mi NNW 6.9 mph - N/A   Clear
11:35 PM 39.2 °F 35.0 °F 35.6 °F 87% 30.06 in 8.0 mi NNW 5.8 mph - N/A   Clear
11:55 PM 39.2 °F 34.2 °F 35.6 °F 87% 30.07 in 7.0 mi NNW 6.9 mph - N/A   Clear